Погода в Захарове

Россия / Калужская область     54°43′50″N   36°38′20″E
темп.,
°C
ветер,
м/с
пор.,
м/с
влажн.,
%
обл.,
%
осадки,
мм/ч
давл.,
гПа
погр.,
м
17 апреля, сб
сб1700:00+10в2697100 5.4 1018275
03:00+9в389487 6.0 1019208
06:00+9в489499 0.1 1019433
09:00+9всв3689100 0.1 1020542
12:00+11всв4887100 0.0 1020721
15:00+13всв61276100 0.5 1018968
18:00+14в61273100 2.8 1016944
21:00+9в2397100 7.6 1018228
18 апреля, вс
вс1800:00+9всв51286100 4.7 1017777
03:00+7в2890100 6.4 1018686
06:00+6вюв2494100 1.8 1018485
09:00+4св1394100 9.3 1020552
12:00+6вюв1190100 0.1 1020471
15:00+6всв4592100 0.1 1021524
18:00+5св4792100 0.1 1022521
21:00+5всв3795100 0.8 1022401
19 апреля, пн
пн1900:00+5всв3897100 1.4 1022414
03:00+5всв4995100 1.6 1022437
06:00+5всв3896100 0.1 1022527
09:00+6всв5891100 0.1 1023586
12:00+6всв5893100 0.1 1023846
15:00+5всв51093100 0.3 1023766
18:00+5всв51093100 0.1 1023805
21:00+4всв51296100 0.8 1023935
20 апреля, вт
вт2000:00+4в51094100 0.2 1022914
03:00+3всв51192100 0.7 1021690
06:00+3всв51292100 0.0 1020692
09:00+3всв51496100 2.6 1018700
12:00+4в71594100 2.4 1016925
15:00+5в71593100 4.2 1012981
18:00+6в81993100 4.2 10081219
21:00+6в102192100 13.0 10031380
21 апреля, ср
ср2100:00+7вюв81794100 1.8 10001116
03:00+9вюв81694100 3.4 9971275
06:00+8юв71392100 1.6 9961268
09:00+5ююв81296100 4.8 996942
12:00+5ююз51095100 0.6 998817
15:00+3ююз71496100 0.7 1004838
18:00+4ююз71391100 0.2 10071242
21:00+4юз61390100 0.6 10111378